Location: Newark
(42.7133°N, 87.7910°W)
Time: 06:05:19
(UTC+00:00)

A-11 Canister half - Pass Details

Date: 23 September 2019
Orbit: 1527 x 1682 km, 47.3° (Epoch: 17 October)

Event Time Altitude Azimuth Distance (km) Brightness Sun altitude
Exits shadow 07:17:40 24° 111° (ESE) 2,755 10.3 -42.4°
Drops below altitude 10° 07:23:02 10° 78° (ENE) 3,754 11.4 -41.8°
Sets 07:26:45 0° 67° (ENE) 4,764 12.2 -41.4°
